www.pogodaiklimat.ru

Погода и климат >> Архив погоды >> Украина >> Гайворон


ПОГОДА в Гайвороне

  • Прогноз погоды в Гайвороне
  • Монитор погоды в Гайвороне

АРХИВ ПОГОДЫ в Гайвороне

Время (UTC), дата Ветер
(напр.,м/с)
 
Видим.   Явления Облачность Т
(С)
Тd
(С)
f
(%)
Тe
(С)
Тes
(С)
Комфортность P
(гПа)
Po
(гПа)
Тmin
(С)
Tmax
(С)
R
(мм)
R24
(мм)
S
(см)
12 14.08 Ю 4 20 км ясно +32.4 +12.6 30 +33 +41 жарко 1012.8 993.3
15 14.08 Ю 2 20 км ясно +32.2 +10.2 26 +32 +34 жарко 1007.9 988.4
18 14.08 штиль 0 10 км ясно +24.6 +16.8 62 +28 +28 душно 1007.6 987.6 +33.2
21 14.08 штиль 0 10 км ясно +18.5 +15.7 84 +19 +19 1008.8 988.3
00 15.08 штиль 0 4000 м дымка ясно +15.6 +14.5 93 +15 +15 1012.6 992.0
03 15.08 штиль 0 4000 м дымка 10/0
[As op]
+15.2 +13.6 90 +15 +15 1009.4 988.7
06 15.08 С 2 10 км 8/8 930 м
[Sc]
+21.5 +17.3 77 +26 +27 душно 1009.6 989.3 +14.2
09 15.08 СВ 4 10 км 10/10 900 м
[Sc]
+19.5 +15.4 77 +21 +21 комфорт 1011.0 990.5
12 15.08 С 4 10 км 8/3 600 м
[Sc Ac und]
+19.8 +14.4 71 +22 +24 комфорт 1015.0 994.7
15 15.08 С 3 10 км 10/0
[Ac und]
+19.2 +14.4 74 +21 +21 комфорт 1011.2 990.7
18 15.08 С 3 10 км 10/10 840 м
[Sc]
+18.3 +13.2 72 +19 +19 1011.9 991.3 +22.4
21 15.08 С 3 10 км 10/10 900 м
[Sc]
+16.6 +11.9 74 +16 +16 1012.6 991.9
00 16.08 СЗ 1 10 км 10/10 840 м
[Sc]
+15.4 +12.3 82 +16 +16 1016.7 996.0
03 16.08 СЗ 2 10 км 10/10 800 м
[Sc]
+15.5 +12.9 84 +15 +15 1012.3 991.5
06 16.08 СЗ 2 10 км 10/10 800 м
[Sc]
+16.1 +13.0 82 +16 +16 1012.6 991.9 +15.0
09 16.08 СЗ 4 20 км 4/4 600 м
[Cu med, cong]
+20.7 +11.3 55 +23 +28 комфорт 1012.0 991.6
12 16.08 СЗ 3 10 км 10/10 800 м
[Sc]
+21.7 +10.5 49 +23 +23 комфорт 1016.3 996.0
15 16.08 СЗ 3 10 км 9/9 870 м
[Sc]
+21.3 +9.5 47 +23 +23 комфорт 1012.3 991.9
18 16.08 СЗ 1 10 км ясно +18.1 +10.7 62 +19 +19 1013.1 992.5 +22.5
21 16.08 штиль 0 10 км ясно +13.1 +10.5 84 +13 +13 1014.0 993.0
00 17.08 штиль 0 10 км ясно +11.1 +9.5 90 +10 +10 1018.4 997.3
03 17.08 штиль 0 4000 м дымка ясно +9.6 +8.5 93 +9 +9 1014.0 992.8
06 17.08 СЗ 2 10 км 10/0
[Ac und]
+14.6 +10.4 76 +14 +16 1014.1 993.2 +9.5
09 17.08 СЗ 4 20 км 6/0
[Ac und]
+20.1 +8.4 47 +21 +27 комфорт 1013.2 992.7
12 17.08 С 4 20 км 6/6 960 м
[Cu med, cong]
+24.0 +8.8 38 +25 +28 комфорт 1016.1 996.0
15 17.08 С 3 10 км 8/8 900 м
[Cu med, cong]
+22.9 +8.1 39 +24 +24 комфорт 1012.3 992.1
18 17.08 С 1 10 км 3/3 600 м
[Cu hum]
+19.1 +10.4 57 +21 +21 комфорт 1013.3 992.8 +24.5
21 17.08 штиль 0 10 км ясно +13.3 +10.5 83 +13 +13 1013.9 993.0
00 18.08 штиль 0 10 км ясно +11.4 +8.8 84 +11 +11 1018.3 997.3
03 18.08 штиль 0 10 км ясно +10.0 +8.4 90 +9 +9 1015.1 993.9
06 18.08 С 1 10 км ясно +15.7 +11.3 75 +16 +22 1015.1 994.3 +10.0
09 18.08 С 2 10 км 4 балла +23.4 +8.6 39
12 18.08 С 3 10 км 6/6 960 м
[Cu med, cong]
+25.7 +8.2 33 +26 +30 жарко 1018.8 998.7
15 18.08 СЗ 2 20 км 2 балла +27.0 +8.9 32
18 18.08 СЗ 1 10 км ясно +19.7 +14.1 70 +23 +23 комфорт 1016.0 995.5 +27.5
21 18.08 штиль 0 10 км ясно +14.4 +12.4 88
00 19.08 штиль 0 10 км ясно +12.1 +10.7 91 +11 +11 1022.4 1001.3
03 19.08 штиль 0 4000 м дымка ясно +10.6 +9.8 95
06 19.08 штиль 0 10 км ясно +17.1 +11.8 71 +17 +24 1019.2 998.4 +10.6
09 19.08 штиль 0 20 км 2 балла +25.6 +12.4 44
12 19.08 ЮЗ 1 20 км 4/4 1000 м
[Cu hum]
+29.2 +10.3 31 +29 +37 жарко 1021.2 1001.3
15 19.08 штиль 0 20 км ясно +29.4 +11.9 34
18 19.08 штиль 0 10 км ясно +21.5 +15.8 70 +25 +25 комфорт 1019.4 998.9 +30.3
21 19.08 штиль 0 10 км ясно +16.3 +14.7 90
00 20.08 штиль 0 4000 м дымка ясно +13.7 +12.9 95 +13 +13 1025.0 1004.0
03 20.08 штиль 0 4000 м дымка ясно +12.0 +11.4 96
06 20.08 штиль 0 20 км ясно +20.0 +12.7 63 +22 +28 комфорт 1022.0 1001.4 +12.0
09 20.08 ЮВ 1 20 км ясно +28.7 +13.7 40
12 20.08 ЮВ 2 20 км ясно +30.6 +11.0 30 +31 +42 жарко 1023.8 1004.0
15 20.08 В 2 20 км 2 балла +31.1 +12.9 33
18 20.08 С 1 10 км ясно +25.4 +13.6 48 +28 +28 жарко 1021.4 1001.1 +32.1
21 20.08 штиль 0 10 км ясно +18.0 +13.9 77
00 21.08 штиль 0 10 км ясно +14.8 +13.3 91 +14 +14 1026.2 1005.3
03 21.08 штиль 0 4000 м дымка ясно +13.1 +12.5 96
06 21.08 штиль 0 20 км ясно +19.6 +13.8 69 +13.0

 

Местоположение метеостанции Гайворон (Кировоградская область, Украина): широта 48.35 долгота 29.87 высота над уровнем моря 175 м.

В архиве по умолчанию представлена погода в Гайвороне за последнюю неделю. Архивные данные за месяц целиком и за предыдущие месяцы, начиная с января 2011 года, Вы можете получить, выбрав интересующий диапазон дат из раскрывающегося списка и нажав кнопку "Ввод!".


*Определитесь, кто Вы:
робот инопланетянин человек

Внимание! Время в таблицах - всемирное. Для получения местного времени необходимо прибавить поправку, которая равна 2 ч.

Смотрите также архив погоды в соседних городах и на ближайших метеорологических станциях:

Погода в Умани (Черкасская область, Украина) (54 км)
Погода в Гайсине (Винницкая область, Украина) (61 км)
Погода в Любашевке (Одесская область, Украина) (63 км)
Погода в Первомайске (Николаевская область, Украина) (80 км)
Погода в Рыбнице (Молдова) (90 км)
Погода в Каменке (Молдова) (94 км)
Погода в Жашкове (Черкасская область, Украина) (102 км)
Погода в Звенигородке (Черкасская область, Украина) (111 км)
Погода в Затишье (Одесская область, Украина) (113 км)
Погода в Помошной (Кировоградская область, Украина) (114 км)

Пояснения к столбцам:

Ветер - указаны скорость ветра в м/с - средняя за 10 мин, порывы в срок и между сроками (в фигурных скобках) и направление, откуда дует ветер: С - северный, СВ - северо-восточный, В - восточный, ЮВ - юго-восточный, Ю - южный, ЮЗ - юго-западный, З - западный, СЗ - северо-западный.
Видимость - горизонтальная дальность видимости в метрах или километрах. При видимости от 1 до 10 км при отсутствии осадков обычно наблюдается дымка, при ухудшении видимости до 1 км и менее - туман. В сухую погоду видимость может ухудшаться дымом, пылью или мглою.
Явления - указаны атмосферные явления, наблюдавшиеся в срок или в последний час перед сроком; фигурными скобками обозначены явления, наблюдавшиеся между сроками (за 1-3 часа до срока); квадратными скобками обозначены град или гололедные отложения с указанием их диаметра в мм.
Облачность - указаны через наклонную черту общая и нижняя облачность в баллах и высота нижней границы облаков в метрах; квадратными скобками обозначены формы облаков: Ci - перистые, Cs - перисто-слоистые, Cc - перисто-кучевые, Ac - высококучевые, As - высокослоистые, Sc - слоисто-кучевые, Ns - слоисто-дождевые, Cu - кучевые, Cb - кучево-дождевые. Подробнее классификацию облаков см. в Атласе облаков (PDF).
T - Температура воздуха - температура, измеренная на высоте 2 м над землей.
Td - Температура точки росы - температура, при понижении до которой содержащийся в воздухе водяной пар достигнет насыщения.
f - Относительная влажность воздуха - влажноcть воздуха, измеренная на высоте 2 м над землей.
Te - Эффективная температура - температура, которую ощущает одетый по сезону человек в тени. Характеристика душности погоды. При расчете учитывается влияние влажности воздуха и скорости ветра на теплоощущения человека.
Tes - Эффективная температура на солнце - температура, которую ощущает человек, с поправкой на солнечный нагрев. Характеристика знойности погоды. Зависит от высоты солнца над горизонтом, облачности и скорости ветра. Ночью, в пасмурную погоду, а также при ветре 12 м/с и более поправка равна нулю.
P - Атмосферное давление - приведенное к уровню моря атмосферное давление.
Po - Атмосферное давление - измеренное на уровне метеостанции атмосферное давление.
Tmin - Минимальная температура - минимум температуры воздуха на высоте 2 м над землей.
Tmax - Максимальная температура - максимум температуры воздуха на высоте 2 м над землей.
R - Количество осадков - Количество выпавших осадков за период времени, мм. При наведении курсора мыши на число - период времени, за который выпало указанное количество осадков.
R24 - Количество осадков - Количество выпавших осадков за 24 часа, мм.
S - Снежный покров - Высота снежного покрова, см. При наведении курсора мыши на число - состояние снежного покрова и степень покрытия местности в баллах.